Date,TemperatureHighF,TemperatureAvgF,TemperatureLowF,DewpointHighF,DewpointAvgF,DewpointLowF,HumidityHigh,HumidityAvg,HumidityLow,PressureMaxIn,PressureMinIn,WindSpeedMaxMPH,WindSpeedAvgMPH,GustSpeedMaxMPH,PrecipitationSumIn
2014-1-1,-200,0,200,-100,-100,-100,0,0,100,30.31,30.19,0,-999,0,0.00
2014-1-2,-200,0,200,-100,-100,-100,0,0,100,30.20,30.06,0,-999,0,0.00
2014-1-3,-200,0,200,-100,-100,-100,0,0,100,30.30,30.10,0,-999,0,0.00
2014-1-4,-200,0,200,-100,-100,-100,0,0,100,30.34,30.24,0,-999,0,0.00
2014-1-5,-200,0,200,-100,-100,-100,0,0,100,30.29,30.12,0,-999,0,0.00
2014-1-6,-200,0,200,-100,-100,-100,0,0,100,30.20,30.12,0,-999,0,0.00
2014-1-7,-200,0,200,-100,-100,-100,0,0,100,30.12,30.00,0,-999,0,0.00
2014-1-8,-200,0,200,-100,-100,-100,0,0,100,30.05,29.84,0,-999,0,0.00
2014-1-9,-200,0,200,-100,-100,-100,0,0,100,30.11,29.95,0,-999,0,0.00
2014-1-10,-200,0,200,-100,-100,-100,0,0,100,30.18,29.77,0,-999,0,0.00
2014-1-11,-200,0,200,-100,-100,-100,0,0,100,29.75,29.65,0,-999,0,0.00
2014-2-3,37,35,32,35,33,31,96,94,93,30.13,30.09,1,0,3,0.01
2014-2-4,45,32,32,38,14,-100,97,73,73,30.25,30.13,5,-136,8,0.01
2014-2-5,38,27,25,25,-1,-100,75,45,41,30.27,30.05,7,-134,15,0.00
2014-2-6,29,23,23,25,1,-100,91,62,41,30.05,29.61,9,-134,14,0.00
2014-2-7,34,25,24,32,6,-100,94,76,87,29.84,29.55,5,-168,6,0.00
2014-2-8,48,33,32,45,20,-100,96,83,89,29.94,29.57,13,-113,19,0.11
2014-2-9,50,37,36,45,23,-100,96,80,78,30.03,29.95,4,-115,9,0.14
2014-2-10,49,40,39,48,26,-100,97,82,87,30.17,30.02,10,-125,14,0.21
2014-2-11,50,41,47,49,24,-100,100,80,92,30.16,29.74,18,-158,38,0.45
2014-2-15,54,49,44,52,46,39,97,90,72,29.80,29.35,26,10,41,0.05
2014-2-16,50,41,44,46,21,-100,92,68,72,30.03,29.81,16,-141,29,0.05
2014-2-17,50,41,47,48,22,-100,97,74,80,30.00,29.77,21,-160,27,0.03
2014-2-18,51,42,42,50,25,-100,97,75,64,30.02,29.77,23,-123,30,0.14
2014-2-19,49,42,43,45,29,-100,94,75,68,30.23,30.02,14,-79,20,0.07
2014-2-20,49,41,45,48,27,-100,97,82,86,30.29,30.20,14,-125,19,0.07
2014-2-21,51,38,35,48,21,-100,98,75,66,30.31,30.22,5,-138,8,0.09
2014-2-22,52,38,33,40,25,-100,97,77,64,30.22,30.04,6,-83,10,0.00
2014-2-23,53,40,33,46,30,-100,97,85,65,30.04,29.94,8,-72,14,0.05
2014-2-24,59,46,46,57,33,-100,98,84,88,29.98,29.92,5,-116,7,0.03
2014-2-25,60,49,47,50,31,-100,91,64,56,29.94,29.84,7,-83,12,0.03
2014-2-26,58,45,44,43,26,-100,81,59,56,29.86,29.59,6,-82,9,0.00
2014-2-27,54,42,44,51,27,-100,96,79,66,29.71,29.56,2,-126,5,0.10
2014-2-28,65,48,44,49,32,-100,96,71,54,29.67,29.35,7,-93,10,0.10
2014-3-1,52,45,46,50,34,-100,97,85,80,29.72,29.45,7,-83,17,0.07
2014-3-2,53,45,48,51,32,-100,96,83,90,29.84,29.62,16,-109,25,0.08
2014-3-3,52,45,49,51,32,-100,97,84,91,29.98,29.73,12,-113,16,0.12
2014-3-4,59,49,48,54,37,-100,100,81,77,30.01,29.79,8,-92,14,0.03
2014-3-5,56,48,52,56,35,-100,98,84,85,29.79,29.48,15,-108,28,0.11
2014-3-6,55,43,49,51,26,-100,97,78,83,30.17,29.55,18,-151,29,0.01
2014-3-7,58,48,44,51,37,-100,100,82,73,30.26,30.07,8,-71,10,0.01
2014-3-8,57,48,43,55,39,-100,98,85,64,30.09,29.80,16,-58,26,0.43
2014-3-9,52,46,50,52,34,-100,99,88,98,30.05,29.93,9,-105,19,0.43
2014-3-10,52,46,42,50,38,-100,99,84,78,30.50,30.02,8,-50,16,0.03
2014-3-11,62,46,36,46,34,-100,97,76,42,30.53,30.32,5,-41,11,0.04
2014-3-12,66,50,42,46,34,-100,95,63,33,30.31,30.16,7,-43,18,0.00
2014-3-13,53,44,36,47,36,-100,96,84,75,30.16,30.07,8,-43,10,0.00
2014-3-14,55,46,44,51,36,-100,97,83,81,30.31,30.06,8,-81,13,0.10
2014-3-15,54,48,42,53,42,-100,98,90,85,30.32,30.23,8,-40,12,0.01
2014-3-16,53,46,42,51,35,-100,96,84,85,30.30,30.01,14,-84,21,0.80
2014-3-17,52,40,41,42,19,-100,95,66,58,30.42,30.16,10,-137,17,0.99
2014-3-18,54,44,39,47,34,-100,96,80,66,30.39,30.17,11,-53,14,0.01
2014-3-19,53,42,40,48,33,-100,100,84,73,30.28,30.14,7,-67,12,0.08
2014-3-20,52,41,35,43,31,-100,97,77,60,30.36,30.29,9,-51,11,0.10
2014-3-21,52,41,31,41,30,-100,95,76,52,30.32,30.22,10,-41,14,0.00
2014-3-22,55,42,31,42,31,-100,96,75,50,30.27,30.22,5,-41,13,0.00
2014-3-23,56,43,34,46,32,-100,95,76,63,30.28,30.14,5,-51,10,0.00
2014-3-24,66,51,41,46,34,-100,97,61,32,30.14,29.85,17,-39,20,0.00
2014-3-25,55,48,48,49,38,-100,94,79,67,29.84,29.63,21,-58,28,0.08
2014-3-26,52,49,46,50,46,44,94,90,82,29.64,29.53,10,4,20,0.13
2014-3-27,53,50,46,48,47,44,94,89,80,29.88,29.55,14,6,24,0.15
2014-3-28,55,47,49,52,34,-100,96,83,88,29.83,29.70,12,-93,21,0.07
2014-3-29,55,48,47,50,40,-100,94,83,81,29.92,29.74,14,-45,20,0.04
2014-3-30,53,46,42,46,37,-100,95,80,72,30.00,29.90,13,-39,16,0.15
2014-3-31,54,47,44,46,36,-100,93,74,58,29.89,29.67,8,-30,15,0.07
2014-4-1,56,46,42,47,37,-100,96,80,62,29.96,29.73,12,-41,12,0.10
2014-4-2,54,46,39,47,43,38,96,87,69,30.05,29.96,11,2,11,0.00
2014-4-3,52,48,43,47,43,-100,96,85,73,30.02,29.93,10,-8,15,0.94
2014-4-4,53,46,44,48,38,-100,97,84,72,29.99,29.96,12,-50,18,0.03
2014-4-5,52,48,48,51,43,-100,97,92,91,30.16,29.98,9,-39,15,0.04
2014-4-6,56,50,50,52,44,-100,98,91,87,30.32,30.15,12,-38,14,0.04
2014-4-7,57,50,46,53,48,46,97,94,84,30.29,30.17,7,1,8,0.00
2014-4-8,60,50,46,54,45,-100,97,90,76,30.21,30.12,6,-30,8,0.10
2014-4-9,57,48,42,49,37,-100,98,78,66,30.25,30.17,8,-51,13,0.12
2014-4-10,56,48,38,46,42,37,97,82,62,30.24,30.12,8,1,14,0.00
2014-4-11,59,49,40,50,44,39,97,83,67,30.14,30.05,7,2,15,0.01
2014-4-12,56,49,40,48,44,38,95,81,61,30.12,30.05,6,1,15,0.01
2014-4-13,73,57,40,51,38,33,97,59,25,30.19,30.05,10,2,13,0.00
2014-4-14,59,51,44,51,44,37,90,77,61,30.25,30.04,9,1,10,0.00
2014-4-15,55,50,45,47,44,41,94,81,71,30.28,30.17,6,1,10,0.06
2014-4-16,54,51,48,50,48,46,96,89,80,30.16,29.99,8,2,10,0.10
2014-4-17,54,48,46,52,40,-100,97,87,83,30.05,29.86,9,-61,16,0.10
2014-4-18,60,50,40,49,43,39,97,79,58,30.13,29.84,5,1,11,0.10
2014-4-19,56,50,43,52,45,36,94,84,56,30.24,29.80,11,3,20,0.01
2014-4-20,58,51,44,48,45,42,96,82,61,30.26,30.12,7,2,9,0.01
2014-4-21,60,49,42,49,45,41,95,87,60,30.12,29.90,7,1,10,0.31
2014-4-22,54,49,45,47,44,40,94,85,70,29.98,29.92,12,4,21,0.28
2014-4-23,53,48,48,52,41,-100,97,89,88,29.96,29.73,18,-46,20,0.26
2014-4-24,54,51,45,52,47,42,97,86,72,29.94,29.70,12,4,22,0.05
2014-4-25,56,48,42,46,43,40,96,84,64,29.91,29.86,6,1,8,0.16
2014-4-26,54,46,38,46,42,37,97,88,66,29.90,29.69,15,3,24,0.43
2014-4-27,54,47,44,47,38,-100,96,80,71,30.17,29.75,10,-39,17,0.01
2014-4-28,62,51,40,51,45,40,97,82,58,30.32,30.18,5,1,7,0.02
2014-4-29,76,60,44,56,48,42,96,69,37,30.39,30.21,5,1,11,0.00
2014-4-30,85,73,60,52,43,36,73,36,22,30.23,29.97,8,2,12,0.00
2014-5-1,78,65,52,56,49,41,91,60,29,30.10,29.97,7,2,9,0.00
2014-5-2,58,55,53,54,52,50,95,90,84,30.11,30.00,5,2,8,0.01
2014-5-3,55,53,51,52,51,49,95,91,87,30.01,29.76,12,4,17,0.29
2014-5-4,55,53,50,53,51,49,96,93,90,29.93,29.78,15,4,15,0.41
2014-5-5,56,53,49,51,49,46,96,87,70,30.09,29.93,8,2,8,0.48
2014-5-6,54,50,47,51,46,42,95,86,70,30.08,30.05,1,0,3,0.00
2014-5-7,58,52,48,47,46,44,92,79,64,30.05,29.91,5,1,7,0.00
2014-5-8,55,52,50,54,50,46,97,93,81,29.91,29.72,11,2,19,0.36
2014-5-9,56,52,47,51,48,45,95,87,76,30.05,29.89,13,4,17,0.32
2014-5-10,58,52,46,50,47,44,94,83,71,30.30,30.06,4,1,8,0.46
2014-5-11,60,52,42,50,47,42,97,82,64,30.32,30.23,6,1,11,0.01
2014-5-12,71,58,45,55,47,38,97,71,33,30.27,30.18,5,1,12,0.00
2014-5-13,82,64,49,54,47,39,92,61,23,30.25,30.17,4,1,10,0.00
2014-5-14,88,68,52,60,53,46,93,63,26,30.18,29.99,3,1,7,0.00
2014-5-15,70,60,55,57,54,51,90,80,54,30.11,30.01,11,2,12,0.01
2014-5-16,62,58,56,55,53,50,90,83,65,30.15,30.09,6,2,7,0.00
2014-5-17,63,58,54,54,51,49,90,79,66,30.11,29.88,4,1,6,0.00
2014-5-18,60,56,53,55,52,50,95,88,79,29.91,29.82,8,2,15,0.25
2014-5-19,63,56,51,54,52,50,95,85,68,30.05,29.90,5,1,8,0.43
2014-5-20,64,56,49,55,51,47,97,84,69,30.17,30.05,6,1,13,0.00
2014-5-21,62,56,48,54,49,46,92,78,66,30.18,30.11,5,1,12,0.00
2014-5-22,64,57,50,58,54,48,96,88,75,30.11,30.00,5,1,8,0.00
2014-5-23,63,56,54,60,55,53,97,95,85,30.16,30.02,4,1,6,0.08
2014-5-24,63,57,52,55,53,50,97,85,69,30.19,30.13,8,1,9,0.08
2014-5-25,60,55,48,57,52,47,97,88,75,30.14,29.97,8,2,12,0.00
2014-5-26,63,59,53,51,49,47,87,69,59,30.20,30.15,5,2,6,0.00
2014-5-27,62,55,47,52,49,46,95,80,60,30.17,30.13,4,1,6,0.00
2014-5-28,61,54,48,53,50,47,96,85,66,30.24,30.13,5,1,6,0.50
2014-5-29,63,56,49,53,50,46,95,79,59,30.24,30.11,7,1,15,0.01
2014-5-30,63,55,45,54,50,44,97,82,66,30.11,30.00,6,1,16,0.00
2014-5-31,61,56,50,54,52,49,97,84,74,30.13,30.04,4,1,11,0.00
2014-6-1,64,58,53,54,52,50,92,79,68,30.11,29.99,6,1,10,0.10
2014-6-2,64,57,53,54,51,48,92,81,67,29.99,29.95,5,1,12,0.00
2014-6-3,64,57,52,55,50,47,84,77,69,30.11,29.97,4,1,8,0.00
2014-6-4,62,55,47,53,49,46,95,80,66,30.15,30.11,7,1,13,0.00
2014-6-5,62,55,48,52,48,45,91,77,66,30.15,30.10,7,1,14,0.00
2014-6-6,62,55,44,54,49,43,95,80,65,30.14,30.10,5,1,11,0.00
2014-6-7,65,57,51,56,52,49,93,84,70,30.21,30.14,5,1,17,0.00
2014-6-8,62,58,51,56,53,50,95,86,75,30.21,30.13,6,1,10,0.00
2014-6-9,65,58,52,54,51,48,95,80,65,30.17,30.11,10,1,16,0.00
2014-6-10,63,55,47,52,48,45,95,78,60,30.14,30.11,6,1,11,0.00
2014-6-13,61,57,54,54,52,50,91,82,73,30.18,30.16,4,1,4,0.00
2014-6-14,64,57,52,56,53,51,95,86,70,30.18,30.02,5,1,9,0.00
2014-6-15,61,56,53,55,52,47,95,87,71,30.01,29.93,5,1,8,0.00
2014-6-16,60,54,49,55,50,47,95,88,72,30.05,29.94,4,1,8,0.21
2014-6-17,63,56,50,55,52,48,96,85,70,30.19,30.05,4,0,6,0.02
2014-6-18,64,55,47,54,50,46,97,82,63,30.16,30.04,5,1,7,0.00
2014-6-19,63,57,47,57,53,46,97,88,75,30.09,30.01,6,2,7,0.08
2014-6-20,65,57,50,56,51,48,97,81,62,30.18,30.09,4,1,11,0.05
2014-6-21,64,55,46,54,50,45,96,82,63,30.13,30.03,5,1,15,0.00
2014-6-22,66,58,49,57,52,48,97,81,60,30.07,29.98,4,1,10,0.00
2014-6-23,65,58,52,58,55,50,96,88,70,30.10,30.00,4,1,4,0.00
2014-6-24,66,61,57,61,58,55,96,89,80,30.12,30.02,5,1,6,0.01
2014-6-25,64,60,57,61,58,56,97,93,84,30.02,29.83,2,0,5,0.01
2014-6-26,63,59,56,58,56,55,98,91,77,29.89,29.81,5,1,8,0.18
2014-6-27,62,59,57,60,58,56,97,95,88,29.95,29.74,7,2,16,0.02
2014-6-28,64,60,57,60,58,56,97,92,81,30.08,29.94,7,2,8,0.00
2014-6-29,68,61,54,60,57,53,97,85,69,30.21,30.08,6,1,7,0.01
2014-6-30,72,61,50,60,56,49,98,83,66,30.18,29.89,6,1,9,0.00
2014-7-1,78,64,54,66,58,53,98,83,50,29.88,29.77,0,0,1,0.00
2014-7-2,69,63,59,61,58,55,96,84,68,30.05,29.89,6,1,10,0.00
2014-7-3,68,62,56,59,55,51,87,79,65,30.10,30.04,4,1,10,0.01
2014-7-4,66,60,52,58,54,50,93,80,67,30.07,30.01,5,1,8,0.00
2014-7-5,69,61,54,61,57,52,96,85,70,30.12,30.05,4,1,6,0.00
2014-7-6,70,62,53,63,59,52,98,90,78,30.17,30.11,3,0,7,0.09
2014-7-7,68,63,59,63,60,57,98,91,81,30.10,30.01,5,1,15,0.00
2014-7-8,67,61,57,60,57,55,96,87,76,30.04,30.01,6,1,12,0.00
2014-7-9,67,61,53,58,55,51,93,83,72,30.05,29.97,10,1,12,0.00
2014-7-10,67,59,51,58,55,50,97,85,70,29.98,29.88,8,1,10,0.00
2014-7-11,62,57,55,57,55,53,96,92,82,30.04,29.90,6,1,6,0.00
2014-7-12,65,59,56,60,57,54,97,93,82,30.13,30.04,5,1,6,0.00
2014-7-13,63,58,56,60,56,55,97,93,83,30.15,30.09,3,0,7,0.00
2014-7-14,67,60,56,60,57,54,98,90,77,30.14,30.08,6,1,9,0.00
2014-7-15,65,59,54,58,56,52,96,88,76,30.09,29.96,7,1,12,0.00
2014-7-16,67,60,51,60,56,50,97,86,75,30.05,29.99,4,1,15,0.00
2014-7-17,68,62,54,60,56,52,93,81,70,30.08,30.03,6,1,11,0.00
2014-7-18,68,61,52,58,55,51,96,81,66,30.12,30.07,5,1,11,0.00
2014-7-19,73,64,55,63,59,53,96,86,68,30.10,29.99,4,1,5,0.00
2014-7-20,69,62,54,60,56,51,96,81,61,30.00,29.96,5,1,9,0.01
2014-7-21,70,61,51,58,54,50,96,79,55,30.02,29.97,5,1,10,0.00
2014-7-22,65,59,56,59,56,54,95,88,74,30.05,29.99,7,1,7,0.01
2014-7-23,64,59,56,59,57,55,98,92,82,30.14,30.00,6,2,11,0.51
2014-7-24,69,62,54,63,57,52,97,85,69,30.26,30.14,7,1,8,0.26
2014-7-25,68,59,50,60,54,49,97,84,68,30.17,30.07,6,1,10,0.00
2014-7-26,69,59,51,60,55,50,98,87,68,30.12,30.09,7,0,15,0.01
2014-7-27,70,61,52,61,56,51,98,84,69,30.10,30.04,6,1,14,0.00
2014-7-28,65,58,52,60,55,51,97,89,76,30.09,30.05,8,1,13,0.00
2014-7-29,66,59,52,60,56,51,97,89,78,30.13,30.08,7,1,13,0.00
2014-7-30,70,61,54,58,55,52,97,82,61,30.12,30.04,9,1,11,0.00
2014-7-31,73,62,52,58,54,51,97,77,52,30.07,29.98,7,1,10,0.00
2014-8-1,66,61,55,60,56,53,94,85,76,30.04,29.96,7,1,11,0.00
2014-8-2,69,61,56,60,57,55,96,86,72,30.04,29.98,6,1,10,0.00
2014-8-3,68,62,56,60,57,55,94,85,73,30.04,29.93,7,1,16,0.01
2014-8-4,65,60,55,60,56,54,97,89,79,30.04,29.96,6,1,12,0.00
2014-8-5,69,62,57,60,57,54,93,84,69,30.11,30.04,4,1,13,0.00
2014-8-6,71,63,56,62,58,52,97,83,64,30.14,30.06,5,1,9,0.00
2014-8-7,70,60,51,59,54,50,97,80,61,30.11,30.06,9,1,11,0.21
2014-8-8,69,61,52,59,54,50,96,80,63,30.12,30.07,9,1,11,0.00
2014-8-9,72,60,51,60,54,50,97,80,51,30.12,30.04,7,1,11,0.00
2014-8-10,75,60,49,59,54,48,97,80,53,30.06,29.89,5,1,9,0.00
2014-8-11,64,58,52,58,54,50,97,88,75,29.93,29.86,6,1,9,0.00
2014-8-12,64,59,54,61,58,54,98,96,89,29.94,29.86,5,1,10,0.01
2014-8-13,66,62,58,62,60,57,98,93,84,30.02,29.92,5,0,6,0.01
2014-8-14,65,62,60,63,61,59,98,95,90,30.01,29.96,6,1,7,0.00
2014-8-15,69,63,58,65,60,57,97,92,79,30.05,29.97,6,0,6,0.00
2014-8-16,71,62,55,62,58,54,98,87,69,30.08,30.03,7,1,11,0.00
2014-8-17,67,60,54,60,56,54,98,87,69,30.10,30.02,12,1,12,0.00
2014-8-18,69,59,54,60,56,52,97,89,70,30.02,29.84,7,1,12,0.00
2014-8-19,70,62,57,62,59,56,96,89,77,29.91,29.86,7,1,13,0.00
2014-8-20,70,63,54,60,56,52,97,81,60,30.01,29.90,5,1,9,0.00
2014-8-21,68,57,49,58,53,48,97,86,66,30.04,30.00,5,1,7,0.00
2014-8-27,67,62,56,60,58,55,95,85,77,30.07,30.04,8,2,14,0.00
2014-8-28,70,61,53,63,58,52,98,89,74,30.11,30.01,6,1,10,0.00
2014-8-29,68,61,58,62,59,57,97,93,76,30.02,29.96,6,1,8,0.00
2014-8-30,67,58,59,63,57,57,100,90,82,30.01,29.90,6,1,11,0.01
2014-8-31,69,61,56,63,58,55,98,91,74,30.07,30.01,7,1,9,0.00
2014-9-1,73,62,54,63,58,53,98,86,62,30.06,29.96,5,1,9,0.00
2014-9-2,70,62,55,61,57,54,98,86,65,30.01,29.94,6,1,10,0.00
2014-9-3,68,59,51,57,53,50,96,82,63,30.10,30.01,7,1,11,0.00
2014-9-4,81,62,48,58,52,47,97,75,36,30.04,29.89,7,1,10,0.00
2014-9-5,90,73,54,56,48,38,95,50,21,29.93,29.84,7,2,16,0.25
2014-9-6,74,51,47,54,48,44,97,86,34,29.93,29.85,10,2,11,0.00
2014-9-7,62,52,51,58,50,50,95,86,79,29.92,29.88,6,1,10,0.00
2014-9-8,69,59,52,60,54,50,96,82,73,29.99,29.89,8,1,10,0.00
2014-9-9,75,59,53,75,55,52,100,85,68,30.14,29.99,6,1,8,0.00
2014-9-10,67,57,50,57,51,49,97,80,65,30.15,30.04,7,1,10,0.00
2014-9-11,79,65,52,53,37,31,97,38,20,30.05,29.90,8,2,16,0.00
2014-9-12,78,61,52,50,40,32,88,47,25,29.90,29.82,6,1,10,0.00
2014-9-13,77,59,47,57,46,41,96,63,29,29.84,29.77,4,0,7,0.00
2014-9-14,77,60,47,54,48,43,94,68,30,29.83,29.79,4,0,5,0.00
2014-9-15,59,52,46,56,50,45,96,87,84,29.90,29.80,8,2,10,0.00
2014-9-16,70,60,58,60,54,55,92,79,65,29.91,29.82,13,2,15,0.00
2014-9-17,66,57,56,59,55,55,96,88,77,29.82,29.68,8,1,8,0.02
2014-9-18,70,58,57,63,54,56,97,81,71,29.99,29.73,8,1,8,0.00
2014-9-19,72,62,54,64,57,53,98,85,64,30.08,29.98,6,1,12,0.00
2014-9-20,80,60,52,64,55,52,100,79,55,30.00,29.77,5,1,8,0.01
2014-9-21,65,58,57,60,56,55,96,87,80,29.97,29.86,10,2,18,0.00
2014-9-22,67,58,58,60,54,55,96,82,71,30.00,29.88,9,2,11,0.00
2014-9-23,67,59,59,64,57,58,98,88,83,29.88,29.66,6,2,17,0.07
2014-9-24,66,55,59,61,52,58,98,81,79,29.84,29.73,10,2,15,0.00
2014-9-25,66,57,58,60,53,56,93,79,72,29.89,29.80,14,2,14,0.04
2014-9-26,66,56,55,61,54,54,96,82,83,30.06,29.89,12,2,16,0.01
2014-9-27,67,56,51,62,53,51,100,84,76,30.09,30.00,5,1,12,0.00
2014-9-28,68,55,50,61,51,49,98,82,68,30.00,29.91,5,1,9,0.00
2014-9-29,64,56,54,61,54,53,97,88,84,30.05,29.92,5,1,7,0.01
2014-9-30,66,55,54,62,52,53,98,83,74,30.19,30.05,7,0,8,0.06
2014-10-1,66,54,49,60,49,48,98,80,68,30.22,30.16,7,1,9,0.00
2014-10-2,71,55,48,56,49,47,100,76,48,30.23,30.16,5,1,10,0.00
2014-10-3,77,57,48,62,50,47,98,73,46,30.16,30.09,4,0,6,0.00
2014-10-4,76,56,52,63,51,50,97,76,54,30.14,30.05,4,0,8,0.20
2014-10-5,78,59,52,64,53,51,98,77,56,30.07,29.97,5,0,8,0.00
2014-10-6,77,59,53,66,54,53,98,77,57,29.99,29.86,3,0,8,0.00
2014-10-7,62,53,54,60,52,54,98,87,85,29.95,29.88,8,1,10,0.01
2014-10-8,63,54,55,58,52,54,98,86,80,30.00,29.94,5,1,7,0.00
2014-10-9,64,52,50,61,51,50,98,90,85,30.03,29.97,5,0,8,0.00
2014-10-10,65,56,55,59,53,53,98,85,79,30.10,30.02,5,1,6,0.00
2014-10-11,66,56,58,63,55,57,100,86,87,30.25,30.05,8,1,9,0.00
2014-10-12,68,54,52,60,51,51,99,82,70,30.28,29.98,4,0,5,0.00
2014-10-13,68,55,48,59,49,43,98,80,42,29.98,29.73,9,2,18,0.40
2014-10-14,62,49,53,58,47,52,98,79,84,29.82,29.50,5,1,13,0.46
2014-10-15,62,48,53,57,46,51,97,78,81,29.97,29.49,11,3,20,0.46
2014-10-16,68,54,53,54,47,49,91,69,54,29.97,29.75,7,1,11,0.00
2014-10-17,65,53,55,59,50,51,97,80,63,29.86,29.66,13,2,20,0.25
2014-10-18,66,51,59,64,50,59,100,80,88,29.93,29.79,7,1,11,0.00
2014-10-19,68,55,57,60,52,56,97,77,73,29.79,29.69,13,3,24,0.00
2014-10-20,62,52,56,59,50,54,97,83,83,29.83,29.70,9,2,13,0.12
2014-10-21,62,50,54,57,47,52,96,75,77,29.95,29.75,12,3,17,0.02
2014-10-22,59,47,53,57,46,52,97,81,90,29.76,29.66,11,3,19,0.04
2014-10-23,58,46,54,57,46,53,99,80,92,29.97,29.72,8,1,21,0.05
2014-10-24,61,48,52,55,47,51,99,82,79,29.98,29.58,5,0,10,0.39
2014-10-25,64,47,53,57,43,49,96,70,64,29.91,29.27,19,6,32,0.22
2014-10-26,60,44,50,54,41,47,96,69,73,30.15,29.91,9,3,15,0.11
2014-10-27,62,49,48,52,44,48,100,72,63,30.15,29.93,9,1,14,0.00
2014-10-28,59,48,54,58,47,48,98,78,67,30.01,29.86,12,4,17,0.13
2014-10-29,62,52,57,59,51,55,99,83,86,30.11,29.92,9,1,16,0.00
2014-10-30,62,48,54,59,46,53,98,77,87,29.92,29.73,9,1,13,0.08
2014-10-31,59,45,46,54,42,45,98,75,77,29.82,29.70,11,1,11,0.00
2014-11-1,59,44,42,54,42,42,98,81,77,30.09,29.80,6,0,7,0.01
2014-11-2,56,46,47,56,45,46,98,84,95,30.18,30.10,8,2,11,0.02
2014-11-3,58,47,55,57,46,54,98,80,94,30.17,30.07,9,2,17,0.03
2014-11-4,59,46,51,58,45,50,99,81,94,30.27,30.02,11,1,20,0.00
2014-11-5,67,50,53,61,49,53,99,81,77,30.24,29.94,5,0,7,0.00
2014-11-6,60,46,49,58,44,48,98,75,82,30.32,29.88,14,3,23,0.02
2014-11-7,63,47,44,54,43,43,99,78,61,30.42,30.28,4,0,6,0.01
2014-11-8,62,44,40,54,41,40,100,79,72,30.28,30.08,4,0,6,0.01
2014-11-9,57,44,45,56,41,44,99,76,78,30.10,29.97,9,1,10,0.00
2014-11-10,58,44,44,50,38,33,98,70,53,30.10,29.93,11,2,19,0.00
2014-11-11,53,41,38,33,22,14,55,38,38,30.00,29.91,13,3,18,0.00
2014-11-12,45,35,36,23,16,14,44,36,37,30.02,29.84,9,2,14,0.00
2014-11-13,41,31,34,37,29,19,96,78,42,29.91,29.72,8,2,17,0.37
2014-11-14,47,33,32,38,29,27,96,72,67,30.16,29.91,4,1,8,0.03
2014-11-15,47,32,32,28,20,17,86,47,41,30.36,30.17,7,1,9,0.00
2014-11-16,53,36,29,29,19,16,81,41,27,30.36,30.23,5,1,10,0.00
2014-11-17,49,29,39,25,14,19,47,30,39,30.28,30.23,7,2,11,0.00